Bradford, PA

11:12 PM EDT on March 24, 2017 (GMT -0400)
Bradford Regional

Weather History for KBFD - January, 2014

Change the Weather History Date:

Sunday, January 19, 2014

  Actual Average Record
Temperature  
Mean Temperature 18 °F 21 °F  
Max Temperature 26 °F 29 °F 47 °F (1973)
Min Temperature 9 °F 13 °F -26 °F (1994)
Degree Days  
Heating Degree Days 47 38  
Month to date heating degree days 773 722  
Since 1 July heating degree days 3709 3778  
Cooling Degree Days 0 0  
Month to date cooling degree days 0 0  
Year to date cooling degree days 0 0  
Moisture  
Dew Point 9 °F    
Average Humidity 70    
Maximum Humidity 83    
Minimum Humidity 57    
Precipitation  
Precipitation T in 0.11 in 2.00 in (1988)
Month to date precipitation 1.93 2.07  
Year to date precipitation 1.93 2.07  
Sea Level Pressure  
Sea Level Pressure 29.65 in    
Wind  
Wind Speed 9 mph (SW)    
Max Wind Speed 21 mph    
Max Gust Speed 33 mph    
Visibility 6 miles    
Events Snow    
T = Trace of Precipitation, MM = Missing Value Source: NWS Daily Summary

Daily Weather History Graph

Daily Weather History Graph

Search for Another Location

Airport or City:

Trip Planner

Search our weather history database for the weather conditions in past years. The results will help you decide how hot, cold, wet, or windy it might be!

Date:

Astronomy

Jan. 19, 2014 Rise Set
Actual Time 7:37 AM EST 5:13 PM EST
Civil Twilight 7:06 AM EST 5:44 PM EST
Nautical Twilight 6:32 AM EST 6:18 PM EST
Astronomical Twilight 5:59 AM EST 6:51 PM EST
Moon 8:53 PM EST (1/19) 9:03 AM EST (1/19)
Length of Visible Light 10h 37m
Length of Day
9h 36m
Waning Gibbous, 89% of the Moon is Illuminated
Jan 19
Waning Gibbous
Jan 24
Last Quarter
Jan 30
New
Feb 6
First Quarter
Feb 14
Full

Hourly Weather History & Observations

Time (EST) Temp. Windchill Dew Point Humidity Pressure Visibility Wind Dir Wind Speed Gust Speed Precip Events Conditions
12:07 AM 10.0 °F 3.6 °F 3.9 °F 76% 29.74 in 10.0 mi South 3.5 mph - N/A   Mostly Cloudy
12:53 AM 10.0 °F 1.8 °F 3.9 °F 76% 29.84 in 10.0 mi South 4.6 mph - N/A   Overcast
1:53 AM 10.0 °F 3.6 °F 5.0 °F 80% 29.81 in 2.5 mi Variable 3.5 mph - 0.00 in Snow Light Snow
2:13 AM 10.0 °F 1.8 °F 3.9 °F 76% 29.69 in 4.0 mi South 4.6 mph - 0.00 in Snow Light Snow
2:26 AM 10.0 °F 3.6 °F 5.0 °F 80% 29.69 in 2.0 mi South 3.5 mph - 0.00 in Snow Light Snow
2:53 AM 10.9 °F 4.7 °F 5.0 °F 77% 29.79 in 2.0 mi South 3.5 mph - 0.00 in Snow Light Snow
2:58 AM 10.9 °F 4.7 °F 5.0 °F 77% 29.69 in 1.8 mi Variable 3.5 mph - 0.00 in Snow Light Snow
3:09 AM 10.9 °F 4.7 °F 5.0 °F 77% 29.69 in 3.0 mi South 3.5 mph - 0.00 in Snow Light Snow
3:18 AM 10.9 °F 2.9 °F 5.0 °F 77% 29.68 in 7.0 mi SSW 4.6 mph - 0.00 in   Overcast
3:48 AM 10.4 °F 4.0 °F 5.0 °F 79% 29.66 in 2.5 mi South 3.5 mph - 0.00 in Snow Light Snow
3:53 AM 10.9 °F 1.4 °F 5.0 °F 77% 29.77 in 2.5 mi South 5.8 mph - 0.00 in Snow Light Snow
4:03 AM 10.9 °F 2.9 °F 5.0 °F 77% 29.66 in 4.0 mi South 4.6 mph - 0.00 in Snow Light Snow
4:53 AM 10.9 °F 2.9 °F 6.1 °F 81% 29.73 in 5.0 mi South 4.6 mph - 0.00 in Snow Light Snow
5:50 AM 10.4 °F 2.2 °F 6.8 °F 85% 29.62 in 2.0 mi South 4.6 mph - 0.00 in Snow Light Snow
5:53 AM 10.9 °F 1.4 °F 6.1 °F 81% 29.73 in 2.0 mi SSW 5.8 mph - 0.00 in Snow Light Snow
6:09 AM 10.9 °F 1.4 °F 6.1 °F 81% 29.62 in 2.5 mi SSW 5.8 mph - 0.00 in Snow Light Snow
6:18 AM 10.9 °F 2.9 °F 6.1 °F 81% 29.62 in 4.0 mi SSW 4.6 mph - 0.00 in Snow Light Snow
6:53 AM 10.0 °F - 5.0 °F 80% 29.73 in 9.0 mi Calm Calm - 0.00 in   Scattered Clouds
7:16 AM 10.0 °F - 5.0 °F 80% 29.62 in 10.0 mi Calm Calm - N/A   Scattered Clouds
7:24 AM 9.0 °F - 5.0 °F 84% 29.62 in 10.0 mi Calm Calm - N/A   Mostly Cloudy
7:53 AM 10.9 °F 2.9 °F 7.0 °F 84% 29.72 in 4.0 mi SSW 4.6 mph - 0.00 in Snow Light Snow
8:31 AM 12.9 °F 3.8 °F 9.0 °F 84% 29.61 in 2.5 mi SW 5.8 mph - 0.00 in Snow Light Snow
8:50 AM 12.2 °F 4.3 °F 8.6 °F 85% 29.61 in 3.0 mi SW 4.6 mph - 0.00 in Snow Light Snow
8:53 AM 14.0 °F 6.5 °F 9.0 °F 80% 29.72 in 3.0 mi Variable 4.6 mph - 0.00 in Snow Light Snow
9:53 AM 15.1 °F 4.2 °F 10.0 °F 80% 29.71 in 4.0 mi SW 8.1 mph - 0.00 in Snow Light Snow
10:13 AM 16.0 °F 3.6 °F 10.0 °F 77% 29.60 in 3.0 mi WSW 10.4 mph 19.6 mph 0.00 in Snow Light Snow
10:17 AM 16.0 °F 6.3 °F 10.9 °F 81% 29.60 in 2.5 mi SW 6.9 mph 19.6 mph 0.00 in Snow Light Snow
10:43 AM 18.0 °F 4.8 °F 10.9 °F 74% 29.58 in 3.0 mi SW 12.7 mph 19.6 mph 0.00 in Snow Light Snow
10:53 AM 18.0 °F 6.1 °F 10.9 °F 74% 29.68 in 2.5 mi SW 10.4 mph 17.3 mph 0.00 in Snow Light Snow
11:18 AM 19.0 °F 5.6 °F 12.0 °F 74% 29.58 in 3.0 mi SW 13.8 mph 21.9 mph 0.00 in Snow Light Snow
11:53 AM 19.9 °F 6.2 °F 12.0 °F 71% 29.66 in 4.0 mi SW 15.0 mph 27.6 mph 0.00 in Snow Light Snow
12:32 PM 21.0 °F 7.6 °F 12.9 °F 71% 29.54 in 9.0 mi SW 15.0 mph 23.0 mph 0.00 in   Overcast
12:53 PM 21.0 °F 9.9 °F 12.9 °F 71% 29.62 in 10.0 mi SW 10.4 mph 21.9 mph 0.00 in   Overcast
1:43 PM 23.0 °F 12.4 °F 12.9 °F 65% 29.51 in 10.0 mi WSW 10.4 mph 17.3 mph N/A   Overcast
1:53 PM 23.0 °F 11.1 °F 12.9 °F 65% 29.60 in 7.0 mi WSW 12.7 mph 28.8 mph N/A   Overcast
2:53 PM 23.0 °F 13.1 °F 14.0 °F 68% 29.59 in 10.0 mi SW 9.2 mph 21.9 mph N/A   Overcast
3:53 PM 24.1 °F 12.0 °F 14.0 °F 65% 29.59 in 10.0 mi SW 13.8 mph 28.8 mph 0.00 in   Overcast
4:53 PM 26.1 °F 13.1 °F 14.0 °F 60% 29.60 in 9.0 mi WSW 17.3 mph 25.3 mph N/A   Overcast
5:49 PM 26.6 °F 16.2 °F 14.0 °F 59% 29.54 in 10.0 mi WSW 11.5 mph 28.8 mph N/A   Overcast
5:53 PM 26.1 °F 15.0 °F 15.1 °F 63% 29.62 in 10.0 mi WSW 12.7 mph 24.2 mph N/A   Overcast
6:53 PM 26.1 °F 17.6 °F 15.1 °F 63% 29.64 in 10.0 mi WSW 8.1 mph 24.2 mph N/A   Overcast
7:53 PM 26.1 °F 14.5 °F 15.1 °F 63% 29.64 in 10.0 mi WSW 13.8 mph 24.2 mph N/A   Overcast
8:53 PM 26.1 °F 15.0 °F 16.0 °F 66% 29.63 in 10.0 mi WSW 12.7 mph 19.6 mph N/A   Overcast
9:53 PM 26.1 °F 15.6 °F 16.0 °F 66% 29.63 in 10.0 mi WSW 11.5 mph 20.7 mph N/A   Overcast
10:53 PM 25.0 °F 14.2 °F 16.0 °F 69% 29.62 in 10.0 mi WSW 11.5 mph 21.9 mph N/A   Overcast
11:53 PM 25.0 °F 16.3 °F 16.0 °F 69% 29.60 in 10.0 mi WSW 8.1 mph 19.6 mph N/A   Overcast